[[{"header":{"parameterUnit":"m.s-1","parameterCategory":1,"la1":30.2991,"la2":30.254,"lo1":-89.0895,"lo2":-89.0444,"dy":0.0017,"dx":0.0017,"nx":28,"ny":28,"refTime":"2024-05-21T09:00:00:Z","depth":0,"parameterNumber":2,"parameterNumberName":"U-component_of_WINDS"},"data":[0,0,0,0,0,0,0,0,0,0,0,0,0,0,0,0,0,0,0,0,0,0,0,0,0,0,0,0,0,0,0,0,0,0,0,0,0,0,0,0,0,0,0,0,0,0,0,0,0,0,0,0,0,0,0,0,0,0,-3.6263,-3.6264,0,-3.6345,-3.6346,-3.6347,-3.6282,-3.628,-3.6277,-3.6274,-3.6358,-3.6362,-3.6367,0,0,0,0,0,0,0,0,0,0,0,0,0,-3.6048,-3.6053,-3.6263,-3.6264,-3.6265,-3.6345,-3.6346,-3.6347,-3.6283,-3.6279,-3.6276,-3.6273,-3.6356,-3.6362,-3.6368,0,0,0,0,0,0,0,0,0,0,0,0,0,-3.6137,-3.6054,-3.6262,-3.6242,-3.6241,-3.6345,-3.6346,-3.6348,-3.6284,-3.6279,-3.6275,-3.6271,-3.6354,-3.6361,-3.6368,-3.6496,0,0,-3.6391,-3.6394,0,0,0,0,0,0,0,0,-3.6132,-3.6145,-3.6244,-3.6244,-3.6243,-3.6299,-3.6301,-3.6397,-3.6285,-3.6267,-3.6274,-3.6269,-3.6342,-3.635,-3.6374,-3.65,-3.6504,-3.6391,-3.6396,-3.6399,-3.6401,0,0,0,0,0,0,0,-3.6126,-3.6141,-3.6295,-3.6246,-3.6245,-3.6229,-3.6237,-3.6319,-3.6327,-3.6269,-3.6264,-3.6275,-3.634,-3.6367,-3.6376,-3.6505,-3.6391,-3.6397,-3.6402,-3.6405,-3.6739,-3.6744,0,0,0,0,0,0,-3.6122,-3.6136,-3.6293,-3.6298,-3.6176,-3.6236,-3.6245,-3.6285,-3.6326,-3.6328,-3.6278,-3.6271,-3.6357,-3.6367,-3.6378,-3.653,-3.6399,-3.6405,-3.6409,-3.6735,-3.674,-3.6745,0,0,0,0,0,0,-3.6118,-3.6137,-3.6289,-3.6216,-3.6234,-3.6244,-3.629,-3.6289,-3.6316,-3.6333,-3.6334,-3.6304,-3.6354,-3.6368,-3.6467,-3.6532,-3.6409,-3.6415,-3.6729,-3.6737,-3.6743,-3.6835,0,0,0,0,0,0,-3.6112,-3.6135,-3.6184,-3.6218,-3.6238,-3.6377,-3.6294,-3.6294,-3.6329,-3.6321,-3.6358,-3.636,-3.6352,-3.6457,-3.6475,-3.654,-3.6421,-3.6724,-3.6733,-3.6741,-3.6826,-3.6844,-3.6859,0,0,0,0,0,-3.6104,-3.6207,-3.6187,-3.6206,-3.63,-3.6381,-3.6393,-3.6382,-3.6334,-3.6383,-3.6394,-3.6359,-3.6522,-3.6468,-3.6487,-3.6555,-3.672,-3.673,-3.674,-3.6818,-3.684,-3.6859,0,0,0,0,0,0,-3.618,-3.6211,-3.6189,-3.6305,-3.6341,-3.637,-3.6431,-3.6406,-3.6456,-3.6446,-3.643,-3.6439,-3.6543,-3.6559,-3.6498,-3.6681,-3.6613,-3.6628,-3.6666,-3.6687,-3.6703,-3.6697,-3.6427,0,0,0,0,0,-3.6211,-3.6275,-3.6298,-3.6398,-3.6417,-3.6422,-3.6457,-3.6445,-3.6482,-3.6496,-3.6514,-3.6551,-3.661,-3.665,-3.6706,-3.6828,-3.6835,-3.6885,-3.6901,-3.6915,-3.6927,-3.6993,-3.7015,-3.6779,-3.6779,-3.6779,0,0,-3.6274,-3.6298,-3.6339,-3.6414,-3.644,-3.6506,-3.6435,-3.6508,-3.6557,-3.6507,-3.6602,-3.6617,-3.6656,-3.6768,-3.6818,-3.6784,-3.6994,-3.6928,-3.6939,-3.6944,-3.7006,-3.7028,-3.7048,-3.6786,-3.6785,-3.6784,0,0,-3.6422,-3.6448,-3.6533,-3.6562,-3.6603,-3.6605,-3.6626,-3.6659,-3.6667,-3.6762,-3.6726,-3.6784,-3.6887,-3.6917,-3.6945,-3.7106,-3.7075,-3.7125,-3.7211,-3.7275,-3.7294,-3.731,-3.7366,-3.7387,-3.7137,-3.7138,-3.7138,0,-3.6495,-3.6594,-3.6581,-3.6657,-3.669,-3.665,-3.6736,-3.6764,-3.6821,-3.6845,-3.6807,-3.6936,-3.696,-3.7077,-3.7116,-3.7141,-3.7164,-3.712,-3.7292,-3.7308,-3.7323,-3.7377,-3.7398,-3.7143,-3.7143,-3.7142,-3.7141,0,-3.6681,-3.675,-3.6815,-3.6871,-3.6912,-3.6993,-3.6992,-3.7035,-3.7021,-3.7027,-3.7124,-3.7152,-3.7212,-3.7239,-3.7226,-3.7355,-3.7333,-3.7294,-3.7226,-3.7352,-3.7402,-3.7422,-3.7151,-3.7149,-3.7148,-3.7146,0,0,-3.6878,-3.6927,-3.6951,-3.6976,-3.7019,-3.7072,-3.7151,-3.7211,-3.7247,-3.7289,-3.7354,-3.7443,-3.7407,-3.744,-3.7429,-3.7486,-3.761,-3.7439,-3.744,-3.7469,-3.7753,-3.7781,-3.7805,-3.759,-3.7594,-3.7597,-3.7749,0,-3.7028,-3.7166,-3.7157,-3.7287,-3.735,-3.7312,-3.7381,-3.7415,-3.7423,-3.7478,-3.7487,-3.755,-3.7498,-3.7518,-3.7572,-3.7583,-3.7666,-3.7572,-3.765,-3.7653,-3.764,-3.7831,-3.7861,-3.8004,-3.7769,-3.7772,-3.7775,0,-3.7221,-3.7269,-3.7405,-3.7438,-3.7464,-3.7526,-3.758,-3.7633,-3.767,-3.7672,-3.7709,-3.7689,-3.7769,-3.77,-3.7809,-3.7745,-3.7777,-3.7787,-3.7793,-3.7798,-3.7721,-3.7841,-3.8049,-3.807,-3.7806,-3.7803,-3.7801,0,-3.735,-3.7449,-3.7543,-3.7566,-3.7607,-3.7651,-3.767,-3.7704,-3.774,-3.7787,-3.781,-3.7866,-3.7896,-3.794,-3.7935,-3.7886,-3.8046,-3.7977,-3.8049,-3.8049,-3.8083,-3.8081,-3.8298,-3.8106,-3.8106,-3.8106,-3.8105,0,-3.7517,-3.7602,-3.7601,-3.7659,-3.7752,-3.7742,-3.7834,-3.7849,-3.7879,-3.7938,-3.7909,-3.7966,-3.7957,-3.8014,-3.8011,-3.8101,-3.8116,-3.8119,-3.8117,-3.8121,-3.812,-3.814,-3.813,-3.8111,-3.811,-3.8109,-3.8108,0,-3.7677,-3.768,-3.778,-3.7811,-3.7821,-3.7888,-3.7914,-3.7969,-3.7975,-3.8051,-3.8068,-3.8078,-3.8143,-3.8143,-3.8218,-3.8216,-3.8326,-3.8313,-3.8313,-3.831,-3.8382,-3.8375,-3.8619,-3.8649,-3.8439,-3.8441,-3.8443,0,-3.7783,-3.7847,-3.7885,-3.7923,-3.7945,-3.8007,-3.8044,-3.8036,-3.8075,-3.8123,-3.8171,-3.8234,-3.8283,-3.8389,-3.8402,-3.8459,-3.8447,-3.8528,-3.8455,-3.8457,-3.8447,-3.8443,-3.8448,-3.8542,-3.8544,-3.8546,-3.8548,0,-3.7971,-3.7969,-3.8023,-3.8079,-3.8124,-3.8167,-3.8206,-3.8239,-3.8236,-3.8282,-3.8348,-3.8386,-3.8462,-3.8525,-3.8579,-3.8599,-3.8573,-3.8571,-3.8591,-3.8595,-3.8592,-3.8593,-3.8351,-3.8565,-3.8563,-3.8562,-3.8561,-3.8561,-3.8106,-3.8161,-3.8196,-3.8258,-3.8287,-3.8325,-3.8377,-3.839,-3.8446,-3.8507,-3.8499,-3.8573,-3.8608,-3.8679,-3.8703,-3.8761,-3.8732,-3.8761,-3.8768,-3.8775,-3.8782,-3.8584,-3.8771,-3.877,-3.877,-3.8769,-3.8769,0,-3.8291,-3.8312,-3.8369,-3.8425,-3.8474,-3.8446,-3.8489,-3.8531,-3.8596,-3.8632,-3.8681,-3.8757,-3.8817,-3.8836,-3.8894,-3.8936,-3.8926,-3.8952,-3.8948,-3.8953,-3.8805,-3.8782,-3.8959,-3.8959,-3.8959,-3.8959,-3.8959,-3.8959,-3.8393,-3.8485,-3.8487,-3.8593,-3.8613,-3.8685,-3.8712,-3.8747,-3.8775,-3.8861,-3.8911,-3.8923,-3.8951,-3.9011,-3.9065,-3.9069,-3.9091,-3.9122,-3.9121,-3.8982,-3.8963,-3.8945,-3.8923,-3.9127,-3.9127,-3.9264,-3.9265,-3.9266]},{"header":{"parameterUnit":"m.s-1","parameterCategory":1,"la1":30.2991,"la2":30.254,"lo1":-89.0895,"lo2":-89.0444,"dy":0.0017,"dx":0.0017,"nx":28,"ny":28,"refTime":"2024-05-21T09:00:00:Z","depth":0,"parameterNumber":3,"parameterNumberName":"V-component_of_WINDS"},"data":[0,0,0,0,0,0,0,0,0,0,0,0,0,0,0,0,0,0,0,0,0,0,0,0,0,0,0,0,0,0,0,0,0,0,0,0,0,0,0,0,0,0,0,0,0,0,0,0,0,0,0,0,0,0,0,0,0,0,3.5212,3.5213,0,3.5257,3.5257,3.5258,3.5227,3.5225,3.5224,3.5223,3.5265,3.5267,3.527,0,0,0,0,0,0,0,0,0,0,0,0,0,3.5098,3.51,3.5212,3.5213,3.5213,3.5257,3.5257,3.5258,3.5227,3.5225,3.5224,3.5222,3.5264,3.5267,3.527,0,0,0,0,0,0,0,0,0,0,0,0,0,3.5145,3.5101,3.5212,3.5203,3.5203,3.5256,3.5257,3.5258,3.5227,3.5225,3.5223,3.5221,3.5263,3.5267,3.527,3.5334,0,0,3.5281,3.5283,0,0,0,0,0,0,0,0,3.5143,3.515,3.5204,3.5204,3.5204,3.5234,3.5232,3.5283,3.5228,3.5218,3.5223,3.522,3.5256,3.526,3.5273,3.5336,3.5338,3.5282,3.5284,3.5285,3.5286,0,0,0,0,0,0,0,3.514,3.5148,3.523,3.5205,3.5205,3.5196,3.5201,3.5242,3.5248,3.5219,3.5216,3.5222,3.5256,3.527,3.5274,3.5338,3.5281,3.5285,3.5287,3.5288,3.5456,3.5458,0,0,0,0,0,0,3.5137,3.5145,3.5228,3.5231,3.5168,3.52,3.5205,3.5226,3.5247,3.5249,3.5224,3.5221,3.5264,3.5269,3.5275,3.535,3.5285,3.5289,3.5291,3.5453,3.5456,3.5459,0,0,0,0,0,0,3.5135,3.5145,3.5226,3.5188,3.5197,3.5204,3.5228,3.5228,3.5242,3.5252,3.5252,3.5237,3.5263,3.527,3.532,3.5351,3.529,3.5294,3.5451,3.5454,3.5457,3.5502,0,0,0,0,0,0,3.5132,3.5145,3.5169,3.5188,3.5199,3.5271,3.523,3.5231,3.5249,3.5245,3.5264,3.5265,3.5262,3.5314,3.5323,3.5355,3.5296,3.5448,3.5452,3.5456,3.5498,3.5507,3.5514,0,0,0,0,0,3.5128,3.518,3.5171,3.5181,3.5231,3.5273,3.5279,3.5275,3.5252,3.5276,3.5282,3.5265,3.5347,3.532,3.533,3.5363,3.5446,3.5451,3.5456,3.5494,3.5505,3.5514,0,0,0,0,0,0,3.5163,3.5182,3.5172,3.5232,3.5251,3.5268,3.5298,3.5287,3.5312,3.5307,3.53,3.5305,3.5357,3.5365,3.5335,3.5426,3.5393,3.54,3.5418,3.5429,3.5437,3.5433,3.5299,0,0,0,0,0,3.5178,3.5211,3.5226,3.5277,3.5287,3.5292,3.531,3.5305,3.5324,3.5332,3.5342,3.5361,3.5391,3.541,3.5438,3.55,3.5503,3.5528,3.5536,3.5543,3.5548,3.5581,3.5592,3.5475,3.5475,3.5475,0,0,3.5208,3.5222,3.5244,3.5284,3.5299,3.5333,3.5298,3.5336,3.5361,3.5337,3.5385,3.5393,3.5413,3.5469,3.5494,3.5478,3.5582,3.5549,3.5554,3.5557,3.5587,3.5598,3.5608,3.5479,3.5478,3.5478,0,0,3.528,3.5295,3.5339,3.5355,3.5378,3.5381,3.5391,3.541,3.5415,3.5463,3.5446,3.5476,3.5528,3.5543,3.5557,3.5637,3.5622,3.5647,3.5689,3.5721,3.573,3.5738,3.5765,3.5775,3.5653,3.5653,3.5653,0,3.5314,3.5366,3.5363,3.5402,3.542,3.5402,3.5446,3.5461,3.5492,3.5504,3.5486,3.5551,3.5563,3.5622,3.5642,3.5655,3.5666,3.5643,3.5729,3.5737,3.5744,3.577,3.5781,3.5656,3.5655,3.5655,3.5655,0,3.5407,3.5443,3.5476,3.5507,3.5529,3.557,3.5572,3.5595,3.5589,3.5593,3.5642,3.5657,3.5688,3.5702,3.5695,3.576,3.5749,3.573,3.5696,3.5758,3.5782,3.5792,3.566,3.5659,3.5658,3.5657,0,0,3.55,3.5531,3.5543,3.5557,3.5581,3.5609,3.5649,3.5681,3.5699,3.5722,3.5755,3.58,3.5783,3.58,3.5795,3.5823,3.5885,3.5801,3.5801,3.5815,3.5955,3.5968,3.598,3.5875,3.5877,3.5879,3.5953,0,3.5573,3.5645,3.5644,3.571,3.5743,3.5727,3.5762,3.578,3.5786,3.5814,3.582,3.5852,3.5828,3.5838,3.5865,3.5871,3.5912,3.5866,3.5905,3.5906,3.5898,3.5992,3.6006,3.6075,3.5962,3.5964,3.5965,0,3.5668,3.5694,3.5764,3.5784,3.5798,3.5829,3.5858,3.5886,3.5906,3.5908,3.5928,3.5919,3.596,3.5926,3.5981,3.595,3.5966,3.5972,3.5974,3.5976,3.5938,3.5995,3.6097,3.6107,3.598,3.5979,3.5978,0,3.5728,3.5781,3.5829,3.5842,3.5867,3.5889,3.5901,3.592,3.5939,3.5964,3.5976,3.6005,3.602,3.6043,3.6042,3.6018,3.6098,3.6064,3.6099,3.6099,3.6115,3.6114,3.6219,3.6128,3.6128,3.6128,3.6128,0,3.5808,3.5851,3.5856,3.5886,3.5933,3.5932,3.5978,3.5987,3.6005,3.6035,3.6023,3.6052,3.605,3.6079,3.6079,3.6124,3.6131,3.6133,3.6132,3.6133,3.6133,3.6142,3.6137,3.6131,3.613,3.613,3.6129,0,3.5882,3.5888,3.5939,3.596,3.5966,3.6,3.6016,3.6044,3.6049,3.6088,3.6097,3.6105,3.6138,3.614,3.6179,3.6179,3.6233,3.6227,3.6226,3.6224,3.6259,3.6255,3.6373,3.6387,3.6288,3.6289,3.629,0,3.5933,3.5965,3.599,3.601,3.6023,3.6055,3.6075,3.6075,3.6095,3.6122,3.6146,3.6179,3.6205,3.6259,3.6267,3.6296,3.6291,3.633,3.6295,3.6295,3.6289,3.6287,3.629,3.6336,3.6337,3.6338,3.6339,0,3.6021,3.6022,3.6052,3.6083,3.6107,3.6131,3.6153,3.617,3.6172,3.6196,3.6231,3.6251,3.6291,3.6323,3.6351,3.6362,3.635,3.635,3.636,3.636,3.6357,3.6358,3.6243,3.6347,3.6346,3.6345,3.6345,3.6345,3.6084,3.6112,3.6134,3.6167,3.6184,3.6205,3.6232,3.6242,3.6271,3.6304,3.6302,3.634,3.636,3.6397,3.641,3.6439,3.6426,3.644,3.6443,3.6446,3.6449,3.6354,3.6445,3.6445,3.6444,3.6444,3.6444,0,3.617,3.6184,3.6215,3.6247,3.6273,3.6262,3.6286,3.6308,3.6342,3.6362,3.6388,3.6428,3.6459,3.6471,3.6501,3.6522,3.6517,3.653,3.6527,3.653,3.646,3.6448,3.6533,3.6533,3.6533,3.6533,3.6533,3.6533,3.6219,3.6266,3.627,3.6325,3.6338,3.6376,3.6391,3.641,3.6426,3.6471,3.6497,3.6505,3.6522,3.6553,3.6581,3.6584,3.6595,3.6609,3.6609,3.6544,3.6535,3.6526,3.6515,3.6612,3.6612,3.6676,3.6677,3.6677]}]]